Regional Weather Roundup
Issued by NWS

Home | Current Version | Previous Version | Text Only | Print | Product List | Glossary On
Versions: 1 2 3 4 5 6 7 8 9 10 11 12 13 14 15 16 17 18 19 20 21 22 23 24 25 26 27 28 29 30 31 32 33 34 35 36 37 38 39 40 41 42 43 44 45 46 47 48 49 50
000
ASUS43 KTOP 101559
RWRKS

WEATHER ROUNDUP FOR KANSAS
NATIONAL WEATHER SERVICE GOODLAND KS
1000 AM CST WED FEB 10 2016

NOTE:  "FAIR" INDICATES FEW OR NO CLOUDS BELOW 12,000 FEET WITH NO
SIGNIFICANT WEATHER AND/OR OBSTRUCTIONS TO VISIBILITY.

KSZ001>006-013>018-027>032-041>047-101700-
NORTHWEST KANSAS

CITY           SKY/WX    TMP DP  RH WIND       PRES   REMARKS
GOODLAND       SUNNY     46  22  38 W15       30.07S
HAYS           SUNNY     45  25  45 W10       30.01S
HILL CITY      SUNNY     45  27  49 W14       30.01R
RUSSELL        SUNNY     43  30  60 SW10      29.99S
$$

KSZ061>065-074>080-084>089-101700-
SOUTHWEST KANSAS

CITY           SKY/WX    TMP DP  RH WIND       PRES   REMARKS
DODGE CITY     SUNNY     45  26  47 W16       30.07F
ELKHART          N/A     53  23  31 W9          N/A
GARDEN CITY    SUNNY     49  27  42 W15       30.08S
GREAT BEND     SUNNY     46  28  49 W14       30.01F
LIBERAL        SUNNY     52  30  43 W14       30.13S
$$

KSZ066>073-081>083-090>101-101700-
SOUTHEAST KANSAS

CITY           SKY/WX    TMP DP  RH WIND       PRES   REMARKS
CHANUTE        SUNNY     33  12  41 S23G29    30.13F WCI  21
COFFEYVILLE    MOSUNNY   33  12  41 S18G24    30.17F WCI  22
HUTCHINSON     SUNNY     38  23  55 SW14      30.05F WCI  30
MEDICINE LODGE   N/A     38  26  62 CALM      30.08F
NEWTON         SUNNY     34  18  51 S17       30.06F WCI  23
PARSONS        SUNNY     34  14  43 S13       30.16F WCI  25
WICHITA INTL   MOSUNNY   36  20  52 S15       30.09F WCI  27
WICHITA JABRA  SUNNY     34  19  54 S18G24    30.07F WCI  23
WINFIELD       SUNNY     38  20  48 S15       30.13F WCI  29
$$

KSZ007>012-019>026-033>040-048>060-102>105-101700-
NORTHEAST KANSAS

CITY           SKY/WX    TMP DP  RH WIND       PRES   REMARKS
CONCORDIA      SUNNY     39  26  59 W10       29.97S WCI  32
EMPORIA        SUNNY     35  15  44 SW18G32   30.06F WCI  24
LAWRENCE       CLOUDY    31  13  47 S15G26    30.08F WCI  20
MANHATTAN      SUNNY     36  20  52 SW21      30.02F WCI  25
OLATHE IND     CLOUDY    30  12  47 S16       30.09F WCI  19
OLATHE EXE     SUNNY     29  12  49 S14       30.10F WCI  18
SALINA         SUNNY     39  24  55 S13       30.02F WCI  31
TOPEKA BILLARD SUNNY     34  12  40 S15G23    30.05F WCI  24
TOPEKA FORBES  SUNNY     35  14  42 S16       30.05F WCI  25
$$



USA.gov is the U.S. government's official web portal to all federal, state and local government web resources and services.